This demonstration page uses our WeatherBlox Daily Observations layout. Learn more.

Left ArrowRight Arrow

40.92945, -100.16068

Hourly Observations for September 18, 2021

Temp ( °F °C ) Dew Point ( °F °C ) Humidity (%) Winds ( mph kmh ) Pressure ( in mb ) Visibility ( mi km ) Precip ( " mm )
12:15 am 00:15 Clear 57 13.8 54 12.2 90 90 SE 3 6 30.20 1023 10 16 N/A
12:35 am 00:35 Partly Cloudy 58 14.6 55 12.5 87 87 SE 6 9 30.18 1022 10 16 N/A
12:55 am 00:55 Clear 58 14.5 54 12.2 86 86 SE 6 9 30.18 1022 10 16 N/A
1:15 am 01:15 Partly Cloudy 58 14.3 54 12.1 87 87 SSE 3 6 30.18 1022 10 16 N/A
1:35 am 01:35 Partly Cloudy 56 13.6 53 11.8 89 89 SSE 3 6 30.20 1023 10 16 N/A
1:55 am 01:55 Clear 57 13.8 53 11.7 87 87 N N/A 30.20 1023 10 16 N/A
2:15 am 02:15 Clear 57 13.7 53 11.8 88 88 N N/A 30.20 1023 10 16 N/A
2:35 am 02:35 Clear 55 13 53 11.5 91 91 S 3 6 30.19 1022 10 16 N/A
2:55 am 02:55 Clear 55 12.8 53 11.4 91 91 S 3 6 30.21 1023 10 16 N/A
3:15 am 03:15 Clear 54 12.3 52 10.9 91 91 N N/A 30.21 1023 10 16 N/A
3:35 am 03:35 Clear 53 11.8 52 10.9 94 94 N N/A 30.20 1023 10 16 N/A
3:55 am 03:55 Clear 54 12.1 52 10.9 92 92 N N/A 30.20 1023 10 16 N/A
4:15 am 04:15 Clear 53 11.4 51 10.6 95 95 N N/A 30.21 1023 10 16 N/A
4:35 am 04:35 Clear 52 11.2 51 10.5 96 96 N N/A 30.20 1023 10 16 N/A
4:55 am 04:55 Clear 52 10.9 50 10.2 95 95 N N/A 30.20 1023 10 16 N/A
5:15 am 05:15 Clear 53 11.5 51 10.6 94 94 S 3 6 30.19 1022 10 16 N/A
5:35 am 05:35 Clear 52 11.3 51 10.7 96 96 N N/A 30.19 1022 10 16 N/A
5:55 am 05:55 Clear 53 11.8 52 11 95 95 N N/A 30.17 1022 10 16 N/A
6:15 am 06:15 Clear 53 11.7 51 10.7 94 94 SSE 6 9 30.18 1022 10 16 N/A
6:35 am 06:35 Clear 54 12.3 52 11 92 92 SSE 3 6 30.17 1022 10 16 N/A
6:55 am 06:55 Clear 55 12.5 52 11.1 91 91 SSE 3 6 30.17 1022 10 16 N/A
7:15 am 07:15 Clear 54 12.1 52 11 93 93 SE 3 6 30.17 1022 10 16 N/A
7:35 am 07:35 Sunny 53 11.9 51 10.7 92 92 N N/A 30.17 1022 10 16 N/A
7:55 am 07:55 Sunny 52 11.2 51 10.4 95 95 SE 3 6 30.18 1022 10 16 N/A
8:15 am 08:15 Sunny 55 12.7 54 12.1 96 96 SSE 3 6 30.17 1022 10 16 N/A
8:35 am 08:35 Sunny 57 14.1 54 12.3 89 89 N N/A 30.15 1021 10 16 N/A
8:55 am 08:55 Sunny 59 14.9 55 12.9 88 88 N N/A 30.14 1021 10 16 N/A
9:15 am 09:15 Sunny 61 16 57 13.9 87 87 N N/A 30.13 1020 10 16 N/A
9:35 am 09:35 Sunny 63 17.4 58 14.5 83 83 S 5 7 30.10 1019 10 16 N/A
9:55 am 09:55 Sunny 66 18.7 59 15.1 80 80 S 7 11 30.09 1019 10 16 N/A
10:15 am 10:15 Sunny 67 19.6 60 15.6 78 78 S 8 13 30.10 1019 10 16 N/A
10:35 am 10:35 Sunny 70 21.1 61 16.3 74 74 SSW 9 15 30.07 1018 10 16 N/A
10:55 am 10:55 Sunny 72 22.1 62 16.4 70 70 SW 13 20 30.06 1018 10 16 N/A
11:15 am 11:15 Sunny 73 22.9 62 16.7 68 68 SSW 12 19 30.05 1018 10 16 N/A
11:35 am 11:35 Sunny 74 23.6 62 16.8 66 66 SSW 12 19 30.03 1017 10 16 N/A
11:55 am 11:55 Sunny 76 24.3 63 17.2 65 65 S 14 22 30.02 1016 10 16 N/A
12:15 pm 12:15 Sunny 77 25 64 17.5 63 63 SSW 16 26 30.01 1016 10 16 N/A
12:35 pm 12:35 Sunny 78 25.3 64 17.5 62 62 S 16 26 30.00 1016 10 16 N/A
12:55 pm 12:55 Sunny 79 26 64 17.8 61 61 S 20 31 29.98 1015 10 16 N/A
1:15 pm 13:15 Sunny 80 26.5 64 17.9 59 59 S 14 22 29.97 1015 10 16 N/A
1:35 pm 13:35 Sunny 82 27.5 65 18.4 58 58 S 15 24 29.95 1014 10 16 N/A
1:55 pm 13:55 Sunny 82 28 64 17.9 54 54 S 17 28 29.92 1013 10 16 N/A
2:15 pm 14:15 Sunny 83 28.5 64 18 53 53 SSW 17 28 29.91 1013 10 16 N/A
2:35 pm 14:35 Sunny 84 29 65 18.1 52 52 S 14 22 29.90 1012 10 16 N/A
2:55 pm 14:55 Sunny 85 29.7 65 18.3 50 50 S 17 28 29.88 1012 10 16 N/A
3:15 pm 15:15 Sunny 86 30.1 65 18.4 50 50 S 20 31 29.87 1011 10 16 N/A
3:35 pm 15:35 Sunny 87 30.5 65 18.1 47 47 S 18 30 29.85 1011 10 16 N/A
3:55 pm 15:55 Sunny 87 30.8 64 17.7 45 45 S 22 35 29.83 1010 10 16 N/A
4:15 pm 16:15 Sunny 88 30.9 63 17.2 44 44 S 23 37 29.83 1010 10 16 N/A
4:35 pm 16:35 Sunny 88 31.1 63 17.4 44 44 S 16 26 29.82 1010 10 16 N/A
4:55 pm 16:55 Sunny 88 31.2 64 17.9 45 45 S 18 30 29.81 1009 10 16 N/A
5:15 pm 17:15 Sunny 88 31 63 17.2 44 44 S 20 31 29.81 1010 10 16 N/A
5:35 pm 17:35 Sunny 87 30.8 64 17.9 46 46 SSE 15 24 29.81 1010 10 16 N/A
5:55 pm 17:55 Sunny 86 30.2 64 17.8 47 47 SSE 17 28 29.82 1010 10 16 N/A
6:15 pm 18:15 Sunny 85 29.6 63 17.2 47 47 SSE 18 30 29.81 1010 10 16 N/A
6:35 pm 18:35 Sunny 84 29 63 17 48 48 SSE 16 26 29.82 1010 10 16 N/A
6:55 pm 18:55 Sunny 83 28.3 63 17.1 51 51 SSE 15 24 29.81 1010 10 16 N/A
7:15 pm 19:15 Sunny 81 27.4 63 17.1 53 53 SSE 12 19 29.82 1010 10 16 N/A
7:35 pm 19:35 Sunny 80 26.7 63 17 55 55 SE 12 19 29.83 1010 10 16 N/A
7:55 pm 19:55 Clear 79 26 63 17 58 58 SE 13 20 29.83 1010 10 16 N/A
8:15 pm 20:15 Clear 77 25 62 16.9 61 61 SE 9 15 29.84 1010 10 16 N/A
8:35 pm 20:35 Clear 76 24.5 63 17 63 63 SE 9 15 29.84 1011 10 16 N/A
8:55 pm 20:55 Clear 75 24 63 17.1 65 65 SE 8 13 29.86 1011 10 16 N/A
9:15 pm 21:15 Clear 73 23 63 17.3 70 70 SE 8 13 29.87 1011 10 16 N/A
9:35 pm 21:35 Clear 73 23 63 17.4 71 71 SSE 10 17 29.87 1011 10 16 N/A
9:55 pm 21:55 Clear 74 23.1 63 17.1 69 69 SSE 14 22 29.87 1011 10 16 N/A
10:15 pm 22:15 Clear 74 23.2 62 16.5 66 66 SSE 14 22 29.87 1011 10 16 N/A
10:35 pm 22:35 Clear 74 23.5 62 16.4 65 65 SSE 16 26 29.87 1012 10 16 N/A
10:55 pm 22:55 Clear 74 23.5 61 16.3 64 64 S 16 26 29.86 1011 10 16 N/A
11:15 pm 23:15 Clear 74 23.6 60 15.8 62 62 S 18 30 29.86 1011 10 16 N/A
11:35 pm 23:35 Clear 74 23.4 60 15.5 61 61 S 17 28 29.86 1011 7 11 N/A
11:55 pm 23:55 Clear 73 23 59 15 61 61 S 17 28 29.87 1011 10 16 N/A

Powered by AerisWeather